Location: Unspecified
(41.1850°N, 73.2650°W)
Time: 02:20:46
(UTC+00:00)

SPOT 1/Viking Rocket - Pass Details

Date: 14 December 2025
Orbit: 772 x 790 km, 98.2° (Epoch: 14 January)

Event Time Altitude Azimuth Distance (km) Brightness Sun altitude
Rises 22:36:46 0° 150° (SSE) 3,272 6.7 -13.1°
Reaches altitude 10° 22:39:08 10° 146° (SE) 2,347 5.9 -13.5°
Maximum altitude 22:44:08 50° 72° (ENE) 998 3.7 -14.4°
Drops below altitude 10° 22:49:09 10° 358° (N) 2,360 5.9 -15.3°
Sets 22:51:32 0° 353° (N) 3,291 6.7 -15.7°
